DELTA 1 DEB, 21601

Orbit data source: Space-Track

DELTA 1 DEB, 21601 is space debris in SSO originally from a launch on Thu, 12 Jun 1975 UTC launched from the Air Force Western Test Range (AFWTR). Debris objects in space refer to the collection of defunct objects orbiting the Earth. Examples of debris include non-operational satellites, rocket bodies, and fragments generated from explosions, collisions, or faulty payload assembly.

Loading next visibility...
Identifier
21601, 1975-052HV
Orbit
SSO
Country
Flag of USUS
Related business
Manufacturer
Unknown
Mission
Spacecraft
Bus & Motor
Unknown
Mass
Unknown
Launch date (UTC)
1975-06-12 (50 years ago)
Launch vehicle
Unknown
Launch site
Air Force Western Test Range (AFWTR)
Object type
Payload
Rocket body
Debris
Shape & HBR
Unknown shape, 0.1 m
Radar Cross Section
Small (<0.1 m²)

Expand to show TLE details & history
Last TLE update: 4 days ago

TLE from 4 days ago
0 DELTA 1 DEB
1 21601U 75052HV  25288.44417390 -.00001792  00000-0 -68018-2 0  9992
2 21601  99.8005 277.3530 0537596 246.5024 274.6224 12.50187875565791
Epoch: 2025-10-15T10:39Z
TLE epoch observation values (Epoch: 2025-10-15T10:39:36.624Z)
Latitude
24.67249°
Longitude
-82.23894°
Altitude
1,455.114 km
Speed
7.142 km/s
True Right ascension
06h 47m 31s
True Declination
24° 33' 14"
Sunlit
Object was in daylight at epoch
Visualization orbit readout
Latitude
Unknown
Longitude
Unknown
Altitude
Unknown
Speed
Unknown
Apparent Right ascension
Unknown
Apparent Declination
Unknown
Sunlit
N/A
Visualization observer readout
Local Sidereal Time
08:37:23
Azimuth
Unknown
Elevation
Unknown
Doppler factor
Unknown
Orbital elements
Apogee altitude
1,882.576 km
Perigee altitude
1,039.703 km
Semi-major axis
7,839.276 km
Eccentricity
0.05376
Inclination
99.8005°
RAAN
277.353°
Arg. of periapsis
246.5024°
True anomaly
268.46052°
Mean anomaly
274.6224°
Eccentric anomaly
271.54332°
Mean motion
3.12701 °/min
Orbital period
115.13 mins
BSTAR
-0.0068018
Loading maneuver chart data...
Computing Atmospheric mass density...

Documentation

Showing up to 5 results
|